Year,Month,Day,Hour,Minute,Value (Times are PST for temperature in C)
2007,05,30,00,00,13.70
2007,05,30,00,01,13.60
2007,05,30,00,02,13.60
2007,05,30,00,03,13.60
2007,05,30,00,04,13.50
2007,05,30,00,05,13.50
2007,05,30,00,06,13.50
2007,05,30,00,07,13.40
2007,05,30,00,08,13.40
2007,05,30,00,09,13.40
2007,05,30,00,10,13.40
2007,05,30,00,11,13.40
2007,05,30,00,12,13.40
2007,05,30,00,13,13.40
2007,05,30,00,14,13.40
2007,05,30,00,15,13.40
2007,05,30,00,16,13.40
2007,05,30,00,17,13.40
2007,05,30,00,18,13.40
2007,05,30,00,19,13.40
2007,05,30,00,20,13.40
2007,05,30,00,21,13.40
2007,05,30,00,22,13.40
2007,05,30,00,23,13.30
2007,05,30,00,24,13.30
2007,05,30,00,25,13.30
2007,05,30,00,26,13.30
2007,05,30,00,27,13.30
2007,05,30,00,28,13.30
2007,05,30,00,29,13.30
2007,05,30,00,30,13.30
2007,05,30,00,31,13.30
2007,05,30,00,32,13.20
2007,05,30,00,33,13.20
2007,05,30,00,34,13.20
2007,05,30,00,35,13.20
2007,05,30,00,36,13.20
2007,05,30,00,37,13.10
2007,05,30,00,38,13.10
2007,05,30,00,39,13.10
2007,05,30,00,40,13.10
2007,05,30,00,41,13.10
2007,05,30,00,42,13.00
2007,05,30,00,43,13.00
2007,05,30,00,44,13.00
2007,05,30,00,45,12.90
2007,05,30,00,46,12.90
2007,05,30,00,47,12.90
2007,05,30,00,48,12.90
2007,05,30,00,49,12.90
2007,05,30,00,50,12.90
2007,05,30,00,51,12.90
2007,05,30,00,52,12.90
2007,05,30,00,53,13.00
2007,05,30,00,54,12.90
2007,05,30,00,55,12.90
2007,05,30,00,56,12.90
2007,05,30,00,57,12.90
2007,05,30,00,58,12.90
2007,05,30,00,59,12.90
2007,05,30,01,00,12.80
2007,05,30,01,01,12.80
2007,05,30,01,02,12.70
2007,05,30,01,03,12.70
2007,05,30,01,04,12.70
2007,05,30,01,05,12.60
2007,05,30,01,06,12.60
2007,05,30,01,07,12.50
2007,05,30,01,08,12.50
2007,05,30,01,09,12.50
2007,05,30,01,10,12.40
2007,05,30,01,11,12.40
2007,05,30,01,12,12.30
2007,05,30,01,13,12.30
2007,05,30,01,14,12.30
2007,05,30,01,15,12.20
2007,05,30,01,16,12.20
2007,05,30,01,17,12.20
2007,05,30,01,18,12.20
2007,05,30,01,19,12.10
2007,05,30,01,20,12.10
2007,05,30,01,21,12.10
2007,05,30,01,22,12.00
2007,05,30,01,23,12.00
2007,05,30,01,24,11.90
2007,05,30,01,25,11.90
2007,05,30,01,26,11.90
2007,05,30,01,27,11.90
2007,05,30,01,28,11.90
2007,05,30,01,29,11.80
2007,05,30,01,30,11.80
2007,05,30,01,31,11.80
2007,05,30,01,32,11.80
2007,05,30,01,33,11.80
2007,05,30,01,34,11.80
2007,05,30,01,35,11.80
2007,05,30,01,36,11.70
2007,05,30,01,37,11.70
2007,05,30,01,38,11.70
2007,05,30,01,39,11.70
2007,05,30,01,40,11.70
2007,05,30,01,41,11.60
2007,05,30,01,42,11.60
2007,05,30,01,43,11.60
2007,05,30,01,44,11.60
2007,05,30,01,45,11.50
2007,05,30,01,46,11.50
2007,05,30,01,47,11.50
2007,05,30,01,48,11.40
2007,05,30,01,49,11.40
2007,05,30,01,50,11.40
2007,05,30,01,51,11.40
2007,05,30,01,52,11.30
2007,05,30,01,53,11.30
2007,05,30,01,54,11.30
2007,05,30,01,55,11.30
2007,05,30,01,56,11.20
2007,05,30,01,57,11.20
2007,05,30,01,58,11.20
2007,05,30,01,59,11.20
2007,05,30,02,00,11.20
2007,05,30,02,01,11.20
2007,05,30,02,02,11.20
2007,05,30,02,03,11.20
2007,05,30,02,04,11.20
2007,05,30,02,05,11.20
2007,05,30,02,06,11.20
2007,05,30,02,07,11.10
2007,05,30,02,08,11.20
2007,05,30,02,09,11.20
2007,05,30,02,10,11.20
2007,05,30,02,11,11.20
2007,05,30,02,12,11.20
2007,05,30,02,13,11.20
2007,05,30,02,14,11.20
2007,05,30,02,15,11.20
2007,05,30,02,16,11.20
2007,05,30,02,17,11.20
2007,05,30,02,18,11.20
2007,05,30,02,19,11.20
2007,05,30,02,20,11.20
2007,05,30,02,21,11.20
2007,05,30,02,22,11.20
2007,05,30,02,23,11.20
2007,05,30,02,24,11.20
2007,05,30,02,25,11.20
2007,05,30,02,26,11.20
2007,05,30,02,27,11.20
2007,05,30,02,28,11.20
2007,05,30,02,29,11.20
2007,05,30,02,30,11.20
2007,05,30,02,31,11.20
2007,05,30,02,32,11.20
2007,05,30,02,33,11.20
2007,05,30,02,34,11.20
2007,05,30,02,35,11.20
2007,05,30,02,36,11.20
2007,05,30,02,37,11.20
2007,05,30,02,38,11.20
2007,05,30,02,39,11.20
2007,05,30,02,40,11.20
2007,05,30,02,41,11.20
2007,05,30,02,42,11.20
2007,05,30,02,43,11.20
2007,05,30,02,44,11.10
2007,05,30,02,45,11.10
2007,05,30,02,46,11.10
2007,05,30,02,47,11.10
2007,05,30,02,48,11.00
2007,05,30,02,49,11.00
2007,05,30,02,50,11.00
2007,05,30,02,51,10.90
2007,05,30,02,52,10.90
2007,05,30,02,53,10.90
2007,05,30,02,54,10.80
2007,05,30,02,55,10.80
2007,05,30,02,56,10.80
2007,05,30,02,57,10.80
2007,05,30,02,58,10.80
2007,05,30,02,59,10.80
2007,05,30,03,00,10.70
2007,05,30,03,01,10.70
2007,05,30,03,02,10.70
2007,05,30,03,03,10.70
2007,05,30,03,04,10.70
2007,05,30,03,05,10.70
2007,05,30,03,06,10.60
2007,05,30,03,07,10.60
2007,05,30,03,08,10.60
2007,05,30,03,09,10.60
2007,05,30,03,10,10.60
2007,05,30,03,11,10.60
2007,05,30,03,12,10.60
2007,05,30,03,13,10.60
2007,05,30,03,14,10.50
2007,05,30,03,15,10.50
2007,05,30,03,16,10.50
2007,05,30,03,17,10.50
2007,05,30,03,18,10.40
2007,05,30,03,19,10.40
2007,05,30,03,20,10.40
2007,05,30,03,21,10.40
2007,05,30,03,22,10.40
2007,05,30,03,23,10.30
2007,05,30,03,24,10.30
2007,05,30,03,25,10.30
2007,05,30,03,26,10.30
2007,05,30,03,27,10.20
2007,05,30,03,28,10.20
2007,05,30,03,29,10.20
2007,05,30,03,30,10.20
2007,05,30,03,31,10.20
2007,05,30,03,32,10.20
2007,05,30,03,33,10.20
2007,05,30,03,34,10.10
2007,05,30,03,35,10.10
2007,05,30,03,36,10.10
2007,05,30,03,37,10.10
2007,05,30,03,38,10.10
2007,05,30,03,39,10.10
2007,05,30,03,40,10.10
2007,05,30,03,41,10.10
2007,05,30,03,42,10.10
2007,05,30,03,43,10.10
2007,05,30,03,44,10.10
2007,05,30,03,45,10.20
2007,05,30,03,46,10.10
2007,05,30,03,47,10.10
2007,05,30,03,48,10.10
2007,05,30,03,49,10.20
2007,05,30,03,50,10.20
2007,05,30,03,51,10.20
2007,05,30,03,52,10.20
2007,05,30,03,53,10.20
2007,05,30,03,54,10.10
2007,05,30,03,55,10.10
2007,05,30,03,56,10.10
2007,05,30,03,57,10.10
2007,05,30,03,58,10.10
2007,05,30,03,59,10.10
2007,05,30,04,00,10.10
2007,05,30,04,01,10.10
2007,05,30,04,02,10.10
2007,05,30,04,03,10.10
2007,05,30,04,04,10.10
2007,05,30,04,05,10.10
2007,05,30,04,06,10.10
2007,05,30,04,07,10.10
2007,05,30,04,08,10.00
2007,05,30,04,09,10.00
2007,05,30,04,10,10.00
2007,05,30,04,11,10.00
2007,05,30,04,12,10.00
2007,05,30,04,13,10.00
2007,05,30,04,14,10.00
2007,05,30,04,15,9.90
2007,05,30,04,16,9.90
2007,05,30,04,17,9.90
2007,05,30,04,18,9.90
2007,05,30,04,19,9.90
2007,05,30,04,20,9.90
2007,05,30,04,21,9.90
2007,05,30,04,22,9.90
2007,05,30,04,23,9.90
2007,05,30,04,24,9.90
2007,05,30,04,25,9.80
2007,05,30,04,26,9.80
2007,05,30,04,27,9.80
2007,05,30,04,28,9.80
2007,05,30,04,29,9.80
2007,05,30,04,30,9.80
2007,05,30,04,31,9.80
2007,05,30,04,32,9.80
2007,05,30,04,33,9.80
2007,05,30,04,34,9.80
2007,05,30,04,35,9.80
2007,05,30,04,36,9.80
2007,05,30,04,37,9.80
2007,05,30,04,38,9.80
2007,05,30,04,39,9.80
2007,05,30,04,40,9.80
2007,05,30,04,41,9.80
2007,05,30,04,42,9.80
2007,05,30,17,10,26.70
2007,05,30,17,11,26.60
2007,05,30,17,12,26.60
2007,05,30,17,13,26.50
2007,05,30,17,14,26.40
2007,05,30,17,15,26.20
2007,05,30,17,16,26.10
2007,05,30,17,17,25.90
2007,05,30,17,18,25.80
2007,05,30,17,19,25.70
2007,05,30,17,20,25.50
2007,05,30,17,21,25.40
2007,05,30,17,22,25.40
2007,05,30,17,23,25.30
2007,05,30,17,24,25.20
2007,05,30,17,25,25.10
2007,05,30,17,26,24.90
2007,05,30,17,27,24.80
2007,05,30,17,28,24.70
2007,05,30,17,29,24.50
2007,05,30,17,30,24.50
2007,05,30,17,31,24.40
2007,05,30,17,32,24.40
2007,05,30,17,33,24.50
2007,05,30,17,34,24.60
2007,05,30,17,35,24.60
2007,05,30,17,36,24.50
2007,05,30,17,37,24.50
2007,05,30,17,38,24.40
2007,05,30,17,39,24.40
2007,05,30,17,40,24.40
2007,05,30,17,41,24.40
2007,05,30,17,42,24.40
2007,05,30,17,43,24.50
2007,05,30,17,44,24.50
2007,05,30,17,45,24.50
2007,05,30,17,46,24.60
2007,05,30,17,47,24.60
2007,05,30,17,48,24.60
2007,05,30,17,49,24.60
2007,05,30,17,50,24.70
2007,05,30,17,51,24.80
2007,05,30,17,52,24.90
2007,05,30,17,53,25.00
2007,05,30,17,54,25.00
2007,05,30,17,55,25.10
2007,05,30,17,56,25.20
2007,05,30,17,57,25.10
2007,05,30,17,58,25.10
2007,05,30,17,59,25.20
2007,05,30,18,00,25.10
2007,05,30,18,01,25.10
2007,05,30,18,02,25.20
2007,05,30,18,03,25.30
2007,05,30,18,04,25.30
2007,05,30,18,05,25.30
2007,05,30,18,06,25.40
2007,05,30,18,07,25.40
2007,05,30,18,08,25.40
2007,05,30,18,09,25.40
2007,05,30,18,10,25.40
2007,05,30,18,11,25.40
2007,05,30,18,12,25.50
2007,05,30,18,13,25.40
2007,05,30,18,14,25.50
2007,05,30,18,15,25.50
2007,05,30,18,16,25.50
2007,05,30,18,17,25.60
2007,05,30,18,18,25.60
2007,05,30,18,19,25.60
2007,05,30,18,20,25.60
2007,05,30,18,21,25.70
2007,05,30,18,22,25.70
2007,05,30,18,23,25.80
2007,05,30,18,24,25.90
2007,05,30,18,25,25.90
2007,05,30,18,26,25.90
2007,05,30,18,27,26.00
2007,05,30,18,28,26.10
2007,05,30,18,29,26.20
2007,05,30,18,30,26.20
2007,05,30,18,31,26.20
2007,05,30,18,32,26.20
2007,05,30,18,33,26.20
2007,05,30,18,34,26.20
2007,05,30,18,35,26.20
2007,05,30,18,36,26.20
2007,05,30,18,37,26.20
2007,05,30,18,38,26.10
2007,05,30,18,39,26.20
2007,05,30,18,40,26.20
2007,05,30,18,41,26.20
2007,05,30,18,42,26.10
2007,05,30,18,43,26.00
2007,05,30,18,44,25.90
2007,05,30,18,45,25.90
2007,05,30,18,46,25.90
2007,05,30,18,47,25.90
2007,05,30,18,48,25.90
2007,05,30,18,49,25.90
2007,05,30,18,50,25.90
2007,05,30,18,51,25.90
2007,05,30,18,52,25.90
2007,05,30,18,53,25.90
2007,05,30,18,54,25.90
2007,05,30,18,55,25.80
2007,05,30,18,56,25.80
2007,05,30,18,57,25.70
2007,05,30,18,58,25.60
2007,05,30,18,59,25.50
2007,05,30,19,00,25.50
2007,05,30,19,01,25.50
2007,05,30,19,02,25.50
2007,05,30,19,03,25.50
2007,05,30,19,04,25.40
2007,05,30,19,05,25.40
2007,05,30,19,06,25.30
2007,05,30,19,07,25.30
2007,05,30,19,08,25.20
2007,05,30,19,09,25.20
2007,05,30,19,10,25.20
2007,05,30,19,11,25.10
2007,05,30,19,12,25.10
2007,05,30,19,13,25.10
2007,05,30,19,14,25.10
2007,05,30,19,15,25.10
2007,05,30,19,16,25.10
2007,05,30,19,17,25.00
2007,05,30,19,18,25.00
2007,05,30,19,19,24.90
2007,05,30,19,20,24.90
2007,05,30,19,21,24.90
2007,05,30,19,22,24.80
2007,05,30,19,23,24.80
2007,05,30,19,24,24.70
2007,05,30,19,25,24.70
2007,05,30,19,26,24.60
2007,05,30,19,27,24.60
2007,05,30,19,28,24.60
2007,05,30,19,29,24.60
2007,05,30,19,30,24.60
2007,05,30,19,31,24.60
2007,05,30,19,32,24.60
2007,05,30,19,33,24.60
2007,05,30,19,34,24.70
2007,05,30,19,35,24.70
2007,05,30,19,36,24.70
2007,05,30,19,37,24.80
2007,05,30,19,38,24.80
2007,05,30,19,39,24.80
2007,05,30,19,40,24.80
2007,05,30,19,41,24.90
2007,05,30,19,42,24.90
2007,05,30,19,43,25.00
2007,05,30,19,44,25.00
2007,05,30,19,45,25.10
2007,05,30,19,46,25.10
2007,05,30,19,47,25.10
2007,05,30,19,48,25.20
2007,05,30,19,49,25.20
2007,05,30,19,50,25.20
2007,05,30,19,51,25.30
2007,05,30,19,52,25.20
2007,05,30,19,53,25.10
2007,05,30,19,54,25.10
2007,05,30,19,55,25.00
2007,05,30,19,56,25.00
2007,05,30,19,57,24.90
2007,05,30,19,58,24.90
2007,05,30,19,59,24.90
2007,05,30,20,00,24.90
2007,05,30,20,01,24.90
2007,05,30,20,02,24.90
2007,05,30,20,03,24.80
2007,05,30,20,04,24.80
2007,05,30,20,05,24.80
2007,05,30,20,06,24.70
2007,05,30,20,07,24.60
2007,05,30,20,08,24.50
2007,05,30,20,09,24.50
2007,05,30,20,10,24.40
2007,05,30,20,11,24.30
2007,05,30,20,12,24.30
2007,05,30,20,13,24.30
2007,05,30,20,14,24.20
2007,05,30,20,15,24.20
2007,05,30,20,16,24.20
2007,05,30,20,17,24.20
2007,05,30,20,18,24.10
2007,05,30,20,19,24.10
2007,05,30,20,20,24.10
2007,05,30,20,21,24.10
2007,05,30,20,22,24.00
2007,05,30,20,23,23.90
2007,05,30,20,24,23.90
2007,05,30,20,25,23.80
2007,05,30,20,26,23.80
2007,05,30,20,27,23.70
2007,05,30,20,28,23.70
2007,05,30,20,29,23.60
2007,05,30,20,30,23.60
2007,05,30,20,31,23.50
2007,05,30,20,32,23.50
2007,05,30,20,33,23.40
2007,05,30,20,34,23.30
2007,05,30,20,35,23.30
2007,05,30,20,36,23.20
2007,05,30,20,37,23.20
2007,05,30,20,38,23.10
2007,05,30,20,39,23.00
2007,05,30,20,40,23.00
2007,05,30,20,41,22.90
2007,05,30,20,42,22.80
2007,05,30,20,43,22.80
2007,05,30,20,44,22.70
2007,05,30,20,45,22.60
2007,05,30,20,46,22.50
2007,05,30,20,47,22.40
2007,05,30,20,48,22.30
2007,05,30,20,49,22.30
2007,05,30,20,50,22.20
2007,05,30,20,51,22.20
2007,05,30,20,52,22.10
2007,05,30,20,53,22.00
2007,05,30,20,54,21.90
2007,05,30,20,55,21.80
2007,05,30,20,56,21.70
2007,05,30,20,57,21.70
2007,05,30,20,58,21.60
2007,05,30,20,59,21.50
2007,05,30,21,00,21.50
2007,05,30,21,01,21.40
2007,05,30,21,02,21.40
2007,05,30,21,03,21.30
2007,05,30,21,04,21.30
2007,05,30,21,05,21.20
2007,05,30,21,06,21.20
2007,05,30,21,07,21.10
2007,05,30,21,08,21.10
2007,05,30,21,09,21.10
2007,05,30,21,10,21.10
2007,05,30,21,11,21.00
2007,05,30,21,12,21.00
2007,05,30,21,13,20.90
2007,05,30,21,14,20.90
2007,05,30,21,15,20.90
2007,05,30,21,16,20.80
2007,05,30,21,17,20.80
2007,05,30,21,18,20.80
2007,05,30,21,19,20.70
2007,05,30,21,20,20.70
2007,05,30,21,21,20.60
2007,05,30,21,22,20.60
2007,05,30,21,23,20.60
2007,05,30,21,24,20.50
2007,05,30,21,25,20.40
2007,05,30,21,26,20.40
2007,05,30,21,27,20.30
2007,05,30,21,28,20.30
2007,05,30,21,29,20.30
2007,05,30,21,30,20.20
2007,05,30,21,31,20.20
2007,05,30,21,32,20.10
2007,05,30,21,33,20.10
2007,05,30,21,34,20.00
2007,05,30,21,35,19.90
2007,05,30,21,36,19.90
2007,05,30,21,37,19.80
2007,05,30,21,38,19.80
2007,05,30,21,39,19.80
2007,05,30,21,40,19.70
2007,05,30,21,41,19.70
2007,05,30,21,42,19.70
2007,05,30,21,43,19.60
2007,05,30,21,44,19.60
2007,05,30,21,45,19.60
2007,05,30,21,46,19.60
2007,05,30,21,47,19.60
2007,05,30,21,48,19.50
2007,05,30,21,49,19.50
2007,05,30,21,50,19.40
2007,05,30,21,51,19.40
2007,05,30,21,52,19.40
2007,05,30,21,53,19.40
2007,05,30,21,54,19.30
2007,05,30,21,55,19.30
2007,05,30,21,56,19.30
2007,05,30,21,57,19.30
2007,05,30,21,58,19.30
2007,05,30,21,59,19.20
2007,05,30,22,00,19.20
2007,05,30,22,01,19.20
2007,05,30,22,02,19.10
2007,05,30,22,03,19.10
2007,05,30,22,04,19.10
2007,05,30,22,05,19.10
2007,05,30,22,06,19.00
2007,05,30,22,07,19.00
2007,05,30,22,08,18.90
2007,05,30,22,09,18.90
2007,05,30,22,10,18.90
2007,05,30,22,11,18.80
2007,05,30,22,12,18.80
2007,05,30,22,13,18.80
2007,05,30,22,14,18.80
2007,05,30,22,15,18.80
2007,05,30,22,16,18.70
2007,05,30,22,17,18.70
2007,05,30,22,18,18.70
2007,05,30,22,19,18.60
2007,05,30,22,20,18.60
2007,05,30,22,21,18.50
2007,05,30,22,22,18.50
2007,05,30,22,23,18.40
2007,05,30,22,24,18.40
2007,05,30,22,25,18.40
2007,05,30,22,26,18.40
2007,05,30,22,27,18.30
2007,05,30,22,28,18.30
2007,05,30,22,29,18.30
2007,05,30,22,30,18.20
2007,05,30,22,31,18.20
2007,05,30,22,32,18.20
2007,05,30,22,33,18.20
2007,05,30,22,34,18.20
2007,05,30,22,35,18.20
2007,05,30,22,36,18.20
2007,05,30,22,37,18.20
2007,05,30,22,38,18.30
2007,05,30,22,39,18.30
2007,05,30,22,40,18.30
2007,05,30,22,41,18.20
2007,05,30,22,42,18.20
2007,05,30,22,43,18.20
2007,05,30,22,44,18.20
2007,05,30,22,45,18.20
2007,05,30,22,46,18.20
2007,05,30,22,47,18.20
2007,05,30,22,48,18.20
2007,05,30,22,49,18.10
2007,05,30,22,50,18.10
2007,05,30,22,51,18.10
2007,05,30,22,52,18.10
2007,05,30,22,53,18.10
2007,05,30,22,54,18.10
2007,05,30,22,55,18.00
2007,05,30,22,56,18.00
2007,05,30,22,57,18.00
2007,05,30,22,58,17.90
2007,05,30,22,59,17.90
2007,05,30,23,00,17.90
2007,05,30,23,01,17.90
2007,05,30,23,02,17.90
2007,05,30,23,03,17.90
2007,05,30,23,04,17.80
2007,05,30,23,05,17.80
2007,05,30,23,06,17.80
2007,05,30,23,07,17.80
2007,05,30,23,08,17.80
2007,05,30,23,09,17.70
2007,05,30,23,10,17.70
2007,05,30,23,11,17.70
2007,05,30,23,12,17.70
2007,05,30,23,13,17.70
2007,05,30,23,14,17.60
2007,05,30,23,15,17.60
2007,05,30,23,16,17.60
2007,05,30,23,17,17.60
2007,05,30,23,18,17.60
2007,05,30,23,19,17.60
2007,05,30,23,20,17.50
2007,05,30,23,21,17.50
2007,05,30,23,22,17.40
2007,05,30,23,23,17.40
2007,05,30,23,24,17.40
2007,05,30,23,25,17.40
2007,05,30,23,26,17.40
2007,05,30,23,27,17.40
2007,05,30,23,28,17.40
2007,05,30,23,29,17.40
2007,05,30,23,30,17.40
2007,05,30,23,31,17.40
2007,05,30,23,32,17.40
2007,05,30,23,33,17.40
2007,05,30,23,34,17.40
2007,05,30,23,35,17.40
2007,05,30,23,36,17.40
2007,05,30,23,37,17.40
2007,05,30,23,38,17.40
2007,05,30,23,39,17.40
2007,05,30,23,40,17.40
2007,05,30,23,41,17.40
2007,05,30,23,42,17.40
2007,05,30,23,43,17.40
2007,05,30,23,44,17.40
2007,05,30,23,45,17.40
2007,05,30,23,46,17.40
2007,05,30,23,47,17.40
2007,05,30,23,48,17.30
2007,05,30,23,49,17.30
2007,05,30,23,50,17.30
2007,05,30,23,51,17.30
2007,05,30,23,52,17.30
2007,05,30,23,53,17.20
2007,05,30,23,54,17.20
2007,05,30,23,55,17.20
2007,05,30,23,56,17.20
2007,05,30,23,57,17.20
2007,05,30,23,58,17.10
2007,05,30,23,59,17.10
